Regional Weather Roundup
Issued by NWS Sterling, VA

Home | Current Version | Previous Version | Graphics & Text | Print | Product List | Glossary On
Versions: 1 2 3 4 5 6 7 8 9 10 11 12 13 14 15 16 17 18 19 20 21 22 23 24 25 26 27 28 29 30 31 32 33 34 35 36 37 38 39 40 41 42 43 44 45 46 47 48 49 50
000
ASUS41 KLWX 031110
RWRLWX

REGIONAL WEATHER ROUNDUP
NATIONAL WEATHER SERVICE BALTIMORE MD/WASHINGTON DC
600 AM EST TUE MAR 03 2015

Note: "FAIR" indicates few or no clouds below 12,000 feet
with no significant weather and/or obstructions to visibility.
 TC=TEMPERATURE CELSIUS

 * =Non NWS site. Station does not report precipitation (e.g. rain,
    snow, etc.), thunder, or fog.

DCZ001-MDZ009-015-VAZ040>042-051-053>054-031200-
WASHINGTON METRO

CITY           SKY/WX    TMP DP  RH WIND       PRES   REMARKS
WASHINGTON NAT CLOUDY    31  16  54 NE6       30.45R
DULLES         CLOUDY    26  16  65 NE5       30.42R
ANDREWS AFB    MOCLDY    25  16  68 N5        30.42R
FT BELVOIR     CLOUDY    26  19  77 CALM      30.44R
QUANTICO       CLOUDY    30  17  58 NE5       30.45R
COLLEGE PARK*  MOCLDY    25  23  93 CALM      30.43R
LEESBURG*      CLOUDY    28  19  69 CALM      30.43R
MANASSAS*      CLOUDY    25  21  86 CALM      30.43R
GAITHERSBURG*  CLOUDY    21  12  68 CALM      30.45R

$$

MDZ006>007-011-014-031200-
BALTIMORE METRO

CITY           SKY/WX    TMP DP  RH WIND       PRES   REMARKS
BWI AIRPORT    CLOUDY    28  14  55 CALM      30.43R
MD SCIENCE CTR   N/A      1  32 100 MISG      30.44R
MARTIN STATE   MOCLDY    28  18  64 CALM      30.46R
ANNAPOLIS      MOCLDY    29  17  61 N5        30.43R
FORT MEADE*    MOCLDY    23  19  86 CALM      30.45S

$$

MDZ012-015-019>023-031200-
MARYLAND EASTERN SHORE

CITY           SKY/WX    TMP DP  RH WIND       PRES   REMARKS
OCEAN CITY     PTCLDY    26  18  71 N5        30.42S
SALISBURY      PTCLDY    28  17  63 NE7       30.41F
BAY BRIDGE AP*   N/A     30  19  64 CALM      30.44R
CAMBRIDGE*     MOCLDY    32  19  59 N3        30.42S
EASTON*        CLEAR     28  19  69 NE6       30.46R

$$

MDZ017>025-031200-
SOUTHERN MARYLAND

CITY           SKY/WX    TMP DP  RH WIND       PRES   REMARKS
PATUXENT RIVER CLOUDY    30  19  63 N6        30.42R
ST INIGOES     NOT AVBL
LEONARDTOWN*   MOCLDY    28  18  64 CALM      30.44R

$$

MDZ003>005-031200-
NORTH CENTRAL MARYLAND

CITY           SKY/WX    TMP DP  RH WIND       PRES   REMARKS
FREDERICK*     NOT AVBL
HAGERSTOWN APT CLOUDY    25  15  66 E6        30.37S
WESTMINSTER*   CLOUDY    25  14  63 CALM      30.39R

$$

MDZ501>502-031200-
WESTERN MARYLAND

CITY           SKY/WX    TMP DP  RH WIND       PRES   REMARKS
OAKLAND*       CLOUDY    19  18  93 SE15G21   30.15F WCI   5
CUMBERLAND*    NOT AVBL

$$

VAZ025>031-031200-
SHENANDOAH VALLEY

CITY           SKY/WX    TMP DP  RH WIND       PRES   REMARKS
WINCHESTER*    CLOUDY    28  14  54 CALM      30.38R
FRONT ROYAL*   PTSUNNY   28  18  64 CALM      30.37R
LURAY*         CLOUDY    30  21  69 CALM      30.36S
NEW MARKET*    CLOUDY    26  20  77 CALM      30.34F
STAUNTON*      MOCLDY    25  19  77 CALM      30.35S
WAYNESBORO*    FAIR      27  15  61 SE7       30.33R

$$

WVZ021-048>050-054>055-031200-
EASTERN WEST VIRGINIA PANHANDLE

CITY           SKY/WX    TMP DP  RH WIND       PRES   REMARKS
MARTINSBURG    CLOUDY    27  17  66 CALM      30.39R
PETERSBURG*    NOT AVBL

$$

VAZ036>039-050-031200-
CENTRAL FOOTHILLS

CITY           SKY/WX    TMP DP  RH WIND       PRES   REMARKS
CHARLOTTESVILL MOCLDY    29  15  56 CALM      30.40R
CULPEPER*      MOCLDY    27  21  80 CALM      30.42R
ORANGE*        CLOUDY    28  23  80 CALM      30.43R
GORDONSVILLE*  FAIR      25  20  82 CALM      30.41R
WARRENTON*     FAIR      26  23  91 CALM      30.42R

$$

VAZ055>057-031200-
NORTH AND CENTRAL PIEDMONT

CITY           SKY/WX    TMP DP  RH WIND       PRES   REMARKS
FREDERICKSBRG* MOCLDY    28  23  81 CALM      30.44R
STAFFORD*      MOCLDY    25  18  74 CALM      30.47R

$$

NCZ024-NYZ072-PAZ021-071-VAZ022-071-031200-
OTHER REGIONAL OBSERVATIONS

CITY           SKY/WX    TMP DP  RH WIND       PRES   REMARKS
NEW YORK CITY  CLEAR     23   8  52 CALM      30.42F
PHILADELPHIA   MOCLDY    26  11  52 N9        30.45F WCI  17
PITTSBURGH     CLOUDY    21  13  71 E8        30.25F WCI  11
ROANOKE        CLOUDY    34  19  54 SE6       30.37R
RICHMOND       CLOUDY    29  18  63 E3        30.41S
RALEIGH        CLOUDY    39  23  52 E10       30.37R

$$

ANZ530>537-031200-
MARINE OBSERVATIONS

STATION/POSITION TIME  TEMP    WIND        PRES
                       AIR SEA DIR/SP/G
                 (UTC) (F)     (DEG/KT/KT) (MB)
THOMAS PT LIGHT  1100   30 32   20/  9/ 10 1031.5R
BALT KEY BRIDGE  1000          360/  6/  7 1030.0F
COVE POINT       1000           20/ 10/ 12 1029.7F
LEWISETTA        1000      33   30/  1/  5 1030.0R
SOLOMONS ISLAND  1000      33                N/A

$$




USA.gov is the U.S. government's official web portal to all federal, state and local government web resources and services.